Thief River Falls, MN

1:37 PM CST on February 08, 2016 (GMT -0600)
Thief River Falls Regional

Weather History for KTVF - December, 2012

Change the Weather History Date:

Thursday, December 13, 2012

  Actual Average Record
Temperature  
Mean Temperature 12 °F -  
Max Temperature 17 °F 21 °F 44 °F (2002)
Min Temperature 8 °F 8 °F -23 °F (1989)
Degree Days  
Heating Degree Days 52    
Moisture  
Dew Point 8 °F    
Average Humidity 86    
Maximum Humidity 100    
Minimum Humidity 73    
Precipitation  
Precipitation 0.00 in - - ()
Sea Level Pressure  
Sea Level Pressure 30.06 in    
Wind  
Wind Speed 6 mph (NNW)    
Max Wind Speed 10 mph    
Max Gust Speed -    
Visibility 9 miles    
Events      
Averages and records for this station are not official NWS values.
T = Trace of Precipitation, MM = Missing Value Source: NWS Daily Summary

Daily Weather History Graph

Daily Weather History Graph

Search for Another Location

Airport or City:

Trip Planner

Search our weather history database for the weather conditions in past years. The results will help you decide how hot, cold, wet, or windy it might be!

Date:

Astronomy

Dec. 13, 2012 Rise Set
Actual Time 8:06 AM CST 4:31 PM CST
Civil Twilight 7:30 AM CST 5:07 PM CST
Nautical Twilight 6:50 AM CST 5:47 PM CST
Astronomical Twilight 6:13 AM CST 6:25 PM CST
Moon 8:14 AM CST (12/13) 5:17 PM CST (12/13)
Length of Visible Light 9h 37m
Length of Day
8h 24m
New Moon, 0% of the Moon is Illuminated
Dec 13
New Moon
Dec 19
First Quarter
Dec 28
Full
Jan 4
Last Quarter
Jan 11
New

Hourly Weather History & Observations

Time (CST) Temp. Windchill Dew Point Humidity Pressure Visibility Wind Dir Wind Speed Gust Speed Precip Events Conditions
12:15 AM 10.4 °F -3.3 °F 8.6 °F 92% 29.97 in 10.0 mi NW 10.4 mph - N/A   Overcast
12:35 AM 10.4 °F -2.4 °F 8.6 °F 92% 29.97 in 10.0 mi NNW 9.2 mph - N/A   Overcast
12:55 AM 10.4 °F -3.3 °F 8.6 °F 92% 29.97 in 10.0 mi NNW 10.4 mph - N/A   Overcast
1:15 AM 10.4 °F -1.5 °F 6.8 °F 85% 29.98 in 10.0 mi NNW 8.1 mph - N/A   Overcast
1:35 AM 10.4 °F -3.3 °F 6.8 °F 85% 29.99 in 10.0 mi NNW 10.4 mph - N/A   Overcast
1:55 AM 10.4 °F -1.5 °F 6.8 °F 85% 29.99 in 10.0 mi NNW 8.1 mph - N/A   Overcast
2:15 AM 10.4 °F -1.5 °F 6.8 °F 85% 30.00 in 10.0 mi NNW 8.1 mph - N/A   Overcast
2:35 AM 10.4 °F -1.5 °F 6.8 °F 85% 30.01 in 10.0 mi NNW 8.1 mph - N/A   Overcast
2:55 AM 10.4 °F 0.8 °F 6.8 °F 85% 30.02 in 10.0 mi NNW 5.8 mph - N/A   Overcast
3:15 AM 10.4 °F -1.5 °F 6.8 °F 85% 30.03 in 10.0 mi North 8.1 mph - N/A   Overcast
3:35 AM 10.4 °F -1.5 °F 5.0 °F 79% 30.03 in 10.0 mi North 8.1 mph - N/A   Overcast
3:55 AM 10.4 °F -1.5 °F 6.8 °F 85% 30.03 in 10.0 mi North 8.1 mph - N/A   Overcast
4:15 AM 8.6 °F -4.7 °F 6.8 °F 92% 30.03 in 10.0 mi North 9.2 mph - N/A   Overcast
4:35 AM 8.6 °F -5.5 °F 5.0 °F 85% 30.04 in 10.0 mi North 10.4 mph - N/A   Overcast
4:55 AM 8.6 °F -5.5 °F 6.8 °F 92% 30.04 in 10.0 mi North 10.4 mph - N/A   Overcast
5:15 AM 8.6 °F -3.7 °F 5.0 °F 85% 30.04 in 10.0 mi North 8.1 mph - N/A   Overcast
5:35 AM 8.6 °F -2.6 °F 5.0 °F 85% 30.05 in 10.0 mi North 6.9 mph - N/A   Overcast
5:55 AM 8.6 °F -3.7 °F 5.0 °F 85% 30.05 in 10.0 mi North 8.1 mph - N/A   Overcast
6:15 AM 8.6 °F -4.7 °F 5.0 °F 85% 30.06 in 8.0 mi North 9.2 mph - N/A   Overcast
6:35 AM 8.6 °F -2.6 °F 3.2 °F 79% 30.06 in 9.0 mi North 6.9 mph - N/A   Overcast
6:55 AM 8.6 °F -3.7 °F 5.0 °F 85% 30.06 in 9.0 mi North 8.1 mph - N/A   Overcast
7:15 AM 8.6 °F -3.7 °F 5.0 °F 85% 30.06 in 10.0 mi North 8.1 mph - N/A   Overcast
7:35 AM 8.6 °F 0.1 °F 6.8 °F 92% 30.07 in 10.0 mi North 4.6 mph - N/A   Overcast
7:55 AM 8.6 °F -2.6 °F 6.8 °F 92% 30.07 in 9.0 mi North 6.9 mph - N/A   Overcast
8:15 AM 8.6 °F -2.6 °F 5.0 °F 85% 30.08 in 8.0 mi North 6.9 mph - N/A   Overcast
8:35 AM 8.6 °F -2.6 °F 6.8 °F 92% 30.09 in 7.0 mi North 6.9 mph - N/A   Overcast
8:55 AM 8.6 °F - 6.8 °F 92% 30.09 in 10.0 mi Calm Calm - N/A   Overcast
9:15 AM 8.6 °F 2.0 °F 6.8 °F 92% 30.10 in 6.0 mi North 3.5 mph - N/A   Overcast
9:35 AM 8.6 °F - 6.8 °F 92% 30.10 in 4.0 mi Calm Calm - N/A   Overcast
9:55 AM 8.6 °F 0.1 °F 6.8 °F 92% 30.10 in 7.0 mi North 4.6 mph - N/A   Overcast
10:15 AM 8.6 °F 2.0 °F 6.8 °F 92% 30.10 in 10.0 mi NNW 3.5 mph - N/A   Overcast
10:35 AM 8.6 °F - 6.8 °F 92% 30.11 in 9.0 mi Calm Calm - N/A   Overcast
10:55 AM 10.4 °F - 6.8 °F 85% 30.11 in 8.0 mi Calm Calm - N/A   Overcast
11:15 AM 10.4 °F - 6.8 °F 85% 30.11 in 7.0 mi Calm Calm - N/A   Scattered Clouds
11:35 AM 10.4 °F - 6.8 °F 85% 30.11 in 10.0 mi Calm Calm - N/A   Clear
11:55 AM 12.2 °F - 6.8 °F 79% 30.10 in 10.0 mi Calm Calm - N/A   Clear
12:15 PM 12.2 °F - 8.6 °F 85% 30.09 in 10.0 mi Calm Calm - N/A   Scattered Clouds
12:35 PM 12.2 °F - 8.6 °F 85% 30.09 in 10.0 mi Calm Calm - N/A   Overcast
12:55 PM 12.2 °F - 8.6 °F 85% 30.08 in 10.0 mi Calm Calm - N/A   Overcast
1:15 PM 12.2 °F 6.1 °F 6.8 °F 79% 30.08 in 10.0 mi South 3.5 mph - N/A   Overcast
1:35 PM 14.0 °F - 8.6 °F 79% 30.08 in 10.0 mi Calm Calm - N/A   Overcast
1:55 PM 14.0 °F - 10.4 °F 86% 30.08 in 10.0 mi Calm Calm - N/A   Overcast
2:15 PM 14.0 °F - 8.6 °F 79% 30.07 in 10.0 mi Calm Calm - N/A   Overcast
2:35 PM 14.0 °F - 8.6 °F 79% 30.07 in 10.0 mi Calm Calm - N/A   Overcast
2:55 PM 15.8 °F 8.6 °F 8.6 °F 73% 30.08 in 10.0 mi West 4.6 mph - N/A   Overcast
3:15 PM 14.0 °F - 8.6 °F 79% 30.08 in 10.0 mi Calm Calm - N/A   Overcast
3:35 PM 14.0 °F 8.2 °F 8.6 °F 79% 30.08 in 10.0 mi SW 3.5 mph - N/A   Mostly Cloudy
3:55 PM 12.2 °F 6.1 °F 8.6 °F 85% 30.08 in 10.0 mi WSW 3.5 mph - N/A   Scattered Clouds
4:15 PM 12.2 °F - 8.6 °F 85% 30.08 in 10.0 mi Calm Calm - N/A   Mostly Cloudy
4:35 PM 12.2 °F - 8.6 °F 85% 30.07 in 10.0 mi Calm Calm - N/A   Scattered Clouds
6:15 PM 8.6 °F - 3.2 °F 79% 30.08 in 10.0 mi Calm Calm - N/A   Mostly Cloudy
7:15 PM 8.6 °F - 6.8 °F 92% 30.07 in 10.0 mi Calm Calm - N/A   Overcast
7:35 PM 10.4 °F 0.8 °F 8.6 °F 92% 30.07 in 10.0 mi SE 5.8 mph - N/A   Overcast
8:15 PM 10.4 °F 0.8 °F 8.6 °F 92% 30.06 in 10.0 mi SE 5.8 mph - N/A   Overcast
8:35 PM 10.4 °F 0.8 °F 8.6 °F 92% 30.07 in 10.0 mi SE 5.8 mph - N/A   Overcast
8:55 PM 12.2 °F 1.7 °F 10.4 °F 92% 30.07 in 10.0 mi SSE 6.9 mph - N/A   Overcast
9:15 PM 15.8 °F 7.2 °F 10.4 °F 79% 30.08 in 10.0 mi SE 5.8 mph - N/A   Overcast
9:35 PM 15.8 °F 7.2 °F 12.2 °F 86% 30.08 in 10.0 mi SSE 5.8 mph - N/A   Overcast
9:55 PM 15.8 °F 6.1 °F 10.4 °F 79% 30.08 in 10.0 mi South 6.9 mph - N/A   Overcast
10:15 PM 15.8 °F 6.1 °F 10.4 °F 79% 30.07 in 5.0 mi South 6.9 mph - N/A   Overcast
10:35 PM 15.8 °F 6.1 °F 15.8 °F 100% 30.07 in 10.0 mi South 6.9 mph - N/A   Overcast
10:55 PM 17.6 °F 8.2 °F 14.0 °F 86% 30.07 in 10.0 mi South 6.9 mph - N/A   Overcast
11:15 PM 17.6 °F 9.3 °F 15.8 °F 93% 30.07 in 10.0 mi South 5.8 mph - N/A   Overcast
11:35 PM 17.6 °F 7.3 °F 12.2 °F 79% 30.07 in 10.0 mi South 8.1 mph - N/A   Overcast
11:55 PM 17.6 °F 7.3 °F 14.0 °F 86% 30.06 in 5.0 mi South 8.1 mph - N/A   Overcast